[[{"header":{"parameterUnit":"m.s-1","parameterCategory":1,"la1":30.2991,"la2":30.254,"lo1":-89.0895,"lo2":-89.0444,"dy":0.0017,"dx":0.0017,"nx":28,"ny":28,"refTime":"2023-07-29T21:00:00:Z","depth":0,"parameterNumber":2,"parameterNumberName":"U-component_of_WINDS"},"data":[0,0,0,0,0,0,0,0,0,0,0,0,0,0,0,0,0,0,0,0,0,0,0,0,0,0,0,0,0,0,0,0,0,0,0,0,0,0,0,0,0,0,0,0,0,0,0,0,0,0,0,0,0,0,0,0,0,0,-0.8252,-0.8253,0,-0.8287,-0.8288,-0.8288,-0.8401,-0.8404,-0.8406,-0.8409,-0.8439,-0.8438,-0.8436,0,0,0,0,0,0,0,0,0,0,0,0,0,-0.8279,-0.8278,-0.8252,-0.8253,-0.8253,-0.8287,-0.8288,-0.8288,-0.8401,-0.8404,-0.8407,-0.841,-0.844,-0.8438,-0.8436,0,0,0,0,0,0,0,0,0,0,0,0,0,-0.8286,-0.8278,-0.8252,-0.8314,-0.8319,-0.8287,-0.8288,-0.8288,-0.84,-0.8404,-0.8408,-0.8411,-0.8441,-0.8438,-0.8436,-0.8345,0,0,-0.8429,-0.8428,0,0,0,0,0,0,0,0,-0.8285,-0.8285,-0.8304,-0.8309,-0.8316,-0.8344,-0.8309,-0.8307,-0.8399,-0.8369,-0.8409,-0.8413,-0.8404,-0.8405,-0.8403,-0.8347,-0.8348,-0.8429,-0.8427,-0.8426,-0.8426,0,0,0,0,0,0,0,-0.8285,-0.8284,-0.8266,-0.8304,-0.8311,-0.8338,-0.8343,-0.8309,-0.8365,-0.8372,-0.8381,-0.8384,-0.8408,-0.8405,-0.8405,-0.8349,-0.8429,-0.8427,-0.8425,-0.8424,-0.822,-0.8216,0,0,0,0,0,0,-0.8276,-0.8283,-0.8265,-0.8267,-0.831,-0.8335,-0.8341,-0.8331,-0.8366,-0.8375,-0.838,-0.8389,-0.8407,-0.8407,-0.8406,-0.8301,-0.8426,-0.8424,-0.8423,-0.8224,-0.8219,-0.8214,0,0,0,0,0,0,-0.8276,-0.8274,-0.8263,-0.8277,-0.8278,-0.833,-0.8319,-0.833,-0.8327,-0.8372,-0.8382,-0.8367,-0.841,-0.841,-0.836,-0.8304,-0.8423,-0.8421,-0.8228,-0.8222,-0.8217,-0.8091,0,0,0,0,0,0,-0.8277,-0.8273,-0.8239,-0.8276,-0.8277,-0.8217,-0.8315,-0.8328,-0.8323,-0.8334,-0.8362,-0.837,-0.8413,-0.8363,-0.8358,-0.8303,-0.8419,-0.8234,-0.8226,-0.8219,-0.81,-0.8081,-0.8065,0,0,0,0,0,-0.8277,-0.8201,-0.8237,-0.8234,-0.8236,-0.8213,-0.8214,-0.8267,-0.8318,-0.8284,-0.8314,-0.8369,-0.8312,-0.8357,-0.8352,-0.8296,-0.8237,-0.8228,-0.8219,-0.8108,-0.8085,-0.8066,0,0,0,0,0,0,-0.8155,-0.8207,-0.8247,-0.8181,-0.8192,-0.8233,-0.8191,-0.8241,-0.8236,-0.8246,-0.8311,-0.8316,-0.8257,-0.8272,-0.8321,-0.821,-0.8284,-0.8273,-0.8201,-0.818,-0.8163,-0.8158,-0.8417,0,0,0,0,0,-0.8121,-0.8099,-0.8146,-0.8083,-0.8087,-0.8138,-0.813,-0.817,-0.8183,-0.8188,-0.8213,-0.8223,-0.8207,-0.8195,-0.8183,-0.8105,-0.8111,-0.8064,-0.8046,-0.8032,-0.802,-0.7979,-0.7958,-0.8185,-0.8185,-0.8185,0,0,-0.8048,-0.8075,-0.8056,-0.8059,-0.8072,-0.8047,-0.8141,-0.811,-0.8091,-0.8183,-0.8137,-0.8157,-0.8172,-0.8107,-0.808,-0.8118,-0.796,-0.802,-0.8008,-0.8005,-0.7968,-0.7946,-0.7927,-0.8178,-0.818,-0.8181,0,0,-0.7903,-0.7922,-0.7871,-0.7884,-0.7904,-0.7939,-0.7927,-0.796,-0.7977,-0.7934,-0.8002,-0.7981,-0.7952,-0.796,-0.796,-0.7822,-0.7872,-0.7816,-0.7723,-0.7682,-0.7664,-0.7648,-0.7597,-0.7578,-0.7806,-0.7806,-0.7805,0,-0.781,-0.7776,-0.7839,-0.7804,-0.7802,-0.7887,-0.7836,-0.7844,-0.7858,-0.7854,-0.7898,-0.7865,-0.7882,-0.7819,-0.7786,-0.7784,-0.7771,-0.7811,-0.7662,-0.7647,-0.7633,-0.7585,-0.7565,-0.7798,-0.7799,-0.78,-0.7801,0,-0.766,-0.7635,-0.7592,-0.7606,-0.76,-0.7557,-0.7612,-0.7599,-0.764,-0.7671,-0.7625,-0.7648,-0.7642,-0.7632,-0.7671,-0.7575,-0.7598,-0.7651,-0.7726,-0.7604,-0.7559,-0.7541,-0.7788,-0.7791,-0.7793,-0.7795,0,0,-0.7433,-0.7485,-0.7468,-0.7475,-0.7505,-0.7487,-0.7448,-0.7445,-0.7431,-0.7439,-0.7406,-0.7382,-0.7432,-0.7432,-0.7474,-0.7439,-0.7325,-0.7496,-0.7498,-0.7461,-0.7219,-0.7176,-0.7154,-0.7361,-0.7358,-0.7356,-0.7217,0,-0.7293,-0.7231,-0.7287,-0.7213,-0.719,-0.7273,-0.7239,-0.7253,-0.7281,-0.7265,-0.7297,-0.7278,-0.7346,-0.7347,-0.7316,-0.7345,-0.7277,-0.7357,-0.7329,-0.7327,-0.7318,-0.7131,-0.7085,-0.6953,-0.72,-0.7197,-0.7195,0,-0.7121,-0.7123,-0.7046,-0.7083,-0.7076,-0.7044,-0.7046,-0.7031,-0.7049,-0.7072,-0.7073,-0.7126,-0.7089,-0.7166,-0.7116,-0.7169,-0.7162,-0.7175,-0.7171,-0.7167,-0.725,-0.7118,-0.6912,-0.689,-0.7169,-0.7171,-0.7173,0,-0.696,-0.6944,-0.6896,-0.6901,-0.6942,-0.6918,-0.6934,-0.6956,-0.6951,-0.6953,-0.6949,-0.6946,-0.6943,-0.6939,-0.6989,-0.7041,-0.6932,-0.7013,-0.6948,-0.6946,-0.6917,-0.6917,-0.6703,-0.6918,-0.6919,-0.6919,-0.6919,0,-0.6795,-0.6744,-0.6825,-0.6794,-0.674,-0.6807,-0.6751,-0.6776,-0.6795,-0.677,-0.6843,-0.6817,-0.6887,-0.6869,-0.6909,-0.686,-0.6859,-0.6875,-0.6885,-0.6866,-0.6863,-0.6858,-0.6867,-0.6914,-0.6915,-0.6916,-0.6917,0,-0.6603,-0.6656,-0.6609,-0.6654,-0.6664,-0.6622,-0.6659,-0.6633,-0.6668,-0.6636,-0.6632,-0.6686,-0.6669,-0.672,-0.6711,-0.6738,-0.6666,-0.6693,-0.6659,-0.6666,-0.6596,-0.6601,-0.6368,-0.634,-0.6577,-0.6574,-0.6573,0,-0.6493,-0.6456,-0.6498,-0.6488,-0.6501,-0.6483,-0.6479,-0.6544,-0.6536,-0.6555,-0.6526,-0.6516,-0.6511,-0.648,-0.6517,-0.651,-0.6535,-0.6455,-0.6534,-0.6517,-0.653,-0.653,-0.6526,-0.6436,-0.6433,-0.6431,-0.6429,0,-0.629,-0.6318,-0.631,-0.6311,-0.6305,-0.6309,-0.6317,-0.6304,-0.6374,-0.6362,-0.6347,-0.6343,-0.6335,-0.6323,-0.6325,-0.6341,-0.6395,-0.6405,-0.6389,-0.6366,-0.6347,-0.6354,-0.661,-0.6408,-0.641,-0.6412,-0.6413,-0.6414,-0.6133,-0.6104,-0.613,-0.6118,-0.6133,-0.6139,-0.6117,-0.6151,-0.614,-0.6139,-0.6179,-0.6155,-0.6176,-0.6185,-0.6195,-0.6177,-0.6213,-0.6191,-0.6184,-0.6177,-0.6163,-0.6354,-0.6178,-0.6178,-0.6179,-0.618,-0.618,0,-0.5931,-0.5953,-0.5942,-0.5953,-0.5944,-0.6001,-0.6014,-0.6002,-0.5981,-0.5997,-0.5991,-0.5973,-0.5963,-0.6001,-0.5996,-0.5974,-0.5999,-0.597,-0.597,-0.5972,-0.6132,-0.6145,-0.595,-0.595,-0.595,-0.595,-0.595,-0.595,-0.5824,-0.5778,-0.581,-0.5772,-0.5794,-0.5773,-0.5775,-0.5781,-0.5794,-0.5772,-0.5765,-0.5791,-0.5815,-0.5813,-0.5806,-0.5817,-0.581,-0.5772,-0.5791,-0.5939,-0.5961,-0.5982,-0.5995,-0.5771,-0.5771,-0.5633,-0.5631,-0.563]},{"header":{"parameterUnit":"m.s-1","parameterCategory":1,"la1":30.2991,"la2":30.254,"lo1":-89.0895,"lo2":-89.0444,"dy":0.0017,"dx":0.0017,"nx":28,"ny":28,"refTime":"2023-07-29T21:00:00:Z","depth":0,"parameterNumber":3,"parameterNumberName":"V-component_of_WINDS"},"data":[0,0,0,0,0,0,0,0,0,0,0,0,0,0,0,0,0,0,0,0,0,0,0,0,0,0,0,0,0,0,0,0,0,0,0,0,0,0,0,0,0,0,0,0,0,0,0,0,0,0,0,0,0,0,0,0,0,0,-1.8161,-1.8161,0,-1.8201,-1.8202,-1.8202,-1.8184,-1.8183,-1.8182,-1.8181,-1.8223,-1.8225,-1.8227,0,0,0,0,0,0,0,0,0,0,0,0,0,-1.8068,-1.807,-1.8161,-1.8161,-1.8162,-1.8201,-1.8202,-1.8203,-1.8184,-1.8183,-1.8182,-1.8181,-1.8222,-1.8224,-1.8227,0,0,0,0,0,0,0,0,0,0,0,0,0,-1.8108,-1.807,-1.8161,-1.8158,-1.8158,-1.8201,-1.8202,-1.8203,-1.8185,-1.8183,-1.8182,-1.818,-1.8221,-1.8224,-1.8227,-1.8276,0,0,-1.8237,-1.8238,0,0,0,0,0,0,0,0,-1.8106,-1.8112,-1.8158,-1.8158,-1.8158,-1.8186,-1.8184,-1.8227,-1.8185,-1.8174,-1.8181,-1.818,-1.8212,-1.8216,-1.8226,-1.8278,-1.828,-1.8237,-1.8239,-1.824,-1.8241,0,0,0,0,0,0,0,-1.8103,-1.811,-1.8177,-1.8158,-1.8159,-1.8154,-1.8158,-1.8192,-1.8201,-1.8175,-1.8174,-1.8179,-1.8212,-1.8224,-1.8227,-1.8281,-1.8237,-1.824,-1.8241,-1.8243,-1.8377,-1.8378,0,0,0,0,0,0,-1.8101,-1.8108,-1.8176,-1.8178,-1.8128,-1.8157,-1.8162,-1.8179,-1.8201,-1.8203,-1.818,-1.8178,-1.8219,-1.8224,-1.8229,-1.8289,-1.824,-1.8243,-1.8245,-1.8375,-1.8377,-1.8379,0,0,0,0,0,0,-1.8099,-1.8107,-1.8174,-1.8143,-1.8151,-1.816,-1.818,-1.818,-1.8192,-1.8205,-1.8206,-1.8191,-1.8218,-1.8224,-1.8265,-1.829,-1.8244,-1.8247,-1.8373,-1.8376,-1.8378,-1.841,0,0,0,0,0,0,-1.8096,-1.8106,-1.8125,-1.8143,-1.8153,-1.821,-1.8181,-1.8182,-1.8198,-1.8195,-1.8215,-1.8217,-1.8217,-1.8261,-1.8268,-1.8294,-1.8249,-1.8371,-1.8374,-1.8377,-1.8407,-1.8413,-1.8419,0,0,0,0,0,-1.8093,-1.8132,-1.8126,-1.8134,-1.8176,-1.8211,-1.8216,-1.8217,-1.82,-1.8219,-1.8227,-1.8216,-1.8286,-1.8265,-1.8273,-1.83,-1.8369,-1.8373,-1.8377,-1.8404,-1.8412,-1.8419,0,0,0,0,0,0,-1.8116,-1.8134,-1.8128,-1.8174,-1.8191,-1.8208,-1.8232,-1.8225,-1.8247,-1.8244,-1.8243,-1.8248,-1.829,-1.8299,-1.8275,-1.835,-1.8325,-1.8331,-1.8343,-1.8351,-1.8357,-1.8354,-1.8252,0,0,0,0,0,-1.8126,-1.8153,-1.8167,-1.8207,-1.8216,-1.8222,-1.8238,-1.8236,-1.8254,-1.8261,-1.8272,-1.829,-1.8316,-1.8334,-1.8358,-1.8407,-1.8412,-1.843,-1.8436,-1.8441,-1.8447,-1.8475,-1.8484,-1.8392,-1.8392,-1.8391,0,0,-1.8148,-1.8161,-1.8178,-1.8212,-1.8225,-1.8253,-1.8229,-1.8259,-1.8281,-1.8266,-1.8306,-1.8314,-1.8334,-1.838,-1.84,-1.8389,-1.8473,-1.8446,-1.845,-1.8453,-1.848,-1.8489,-1.8497,-1.8394,-1.8394,-1.8393,0,0,-1.8203,-1.8215,-1.825,-1.8264,-1.8284,-1.8289,-1.8297,-1.8315,-1.8321,-1.8361,-1.8351,-1.8376,-1.842,-1.8436,-1.8449,-1.8511,-1.8502,-1.8518,-1.8551,-1.8579,-1.8586,-1.8593,-1.8617,-1.8625,-1.8523,-1.8523,-1.8524,0,-1.8227,-1.827,-1.8268,-1.8301,-1.8316,-1.8304,-1.834,-1.8354,-1.8381,-1.8393,-1.8379,-1.8436,-1.8448,-1.8498,-1.8513,-1.8524,-1.8534,-1.8517,-1.8585,-1.8592,-1.8598,-1.8621,-1.863,-1.8525,-1.8525,-1.8525,-1.8525,0,-1.83,-1.833,-1.8355,-1.8383,-1.8401,-1.8435,-1.844,-1.8458,-1.8455,-1.8461,-1.8503,-1.8517,-1.8545,-1.8557,-1.8553,-1.8607,-1.8599,-1.8585,-1.8561,-1.8609,-1.863,-1.8639,-1.8528,-1.8528,-1.8527,-1.8527,0,0,-1.8371,-1.8398,-1.8408,-1.8421,-1.8443,-1.8466,-1.85,-1.8528,-1.8545,-1.8564,-1.8593,-1.8631,-1.8619,-1.8635,-1.8633,-1.8657,-1.8708,-1.8641,-1.8641,-1.8655,-1.877,-1.8782,-1.8792,-1.8702,-1.8703,-1.8705,-1.8769,0,-1.8429,-1.8488,-1.8489,-1.8544,-1.8572,-1.8561,-1.8591,-1.8608,-1.8614,-1.864,-1.8646,-1.8675,-1.8655,-1.8665,-1.8688,-1.8697,-1.8731,-1.8692,-1.873,-1.8732,-1.8728,-1.8803,-1.8815,-1.8875,-1.8777,-1.8778,-1.8779,0,-1.8505,-1.8528,-1.8586,-1.8606,-1.8617,-1.8644,-1.8671,-1.8694,-1.8714,-1.8717,-1.8734,-1.873,-1.8765,-1.8738,-1.8787,-1.876,-1.8775,-1.8782,-1.8784,-1.879,-1.876,-1.8812,-1.8894,-1.8904,-1.8792,-1.8791,-1.879,0,-1.8554,-1.8599,-1.864,-1.8651,-1.8674,-1.8694,-1.8704,-1.8722,-1.8739,-1.8762,-1.8774,-1.88,-1.8815,-1.8836,-1.8839,-1.8818,-1.8889,-1.8861,-1.8893,-1.8894,-1.891,-1.891,-1.8998,-1.8917,-1.8916,-1.8916,-1.8916,0,-1.862,-1.8656,-1.8662,-1.8688,-1.8729,-1.8729,-1.8769,-1.8778,-1.8794,-1.8822,-1.8813,-1.8839,-1.884,-1.8867,-1.8869,-1.8911,-1.8917,-1.8921,-1.8922,-1.8923,-1.8923,-1.8935,-1.8932,-1.8919,-1.8918,-1.8918,-1.8917,0,-1.8682,-1.8687,-1.8732,-1.875,-1.8756,-1.8785,-1.8802,-1.8826,-1.8832,-1.8867,-1.8875,-1.8884,-1.8916,-1.892,-1.8956,-1.8958,-1.9008,-1.9003,-1.9002,-1.9002,-1.9035,-1.9033,-1.9136,-1.915,-1.9057,-1.9058,-1.9059,0,-1.8725,-1.8753,-1.8775,-1.8793,-1.8805,-1.8834,-1.8852,-1.8852,-1.8871,-1.8896,-1.8919,-1.8949,-1.8974,-1.9024,-1.9034,-1.9062,-1.9059,-1.9093,-1.9064,-1.9065,-1.9063,-1.9062,-1.9066,-1.91,-1.9101,-1.9102,-1.9102,0,-1.8801,-1.8803,-1.8829,-1.8857,-1.8879,-1.89,-1.8921,-1.8936,-1.8939,-1.8961,-1.8994,-1.9013,-1.905,-1.9081,-1.9109,-1.912,-1.9113,-1.9112,-1.9121,-1.9124,-1.9123,-1.9127,-1.902,-1.911,-1.9109,-1.9108,-1.9108,-1.9108,-1.8856,-1.8882,-1.8902,-1.8932,-1.8947,-1.8967,-1.8992,-1.9001,-1.9028,-1.9059,-1.9057,-1.9094,-1.9113,-1.915,-1.9163,-1.9192,-1.9181,-1.9194,-1.9197,-1.9201,-1.9206,-1.9117,-1.9196,-1.9196,-1.9196,-1.9196,-1.9196,0,-1.8934,-1.8947,-1.8974,-1.9004,-1.9028,-1.9018,-1.904,-1.9061,-1.9093,-1.9112,-1.9137,-1.9175,-1.9205,-1.9218,-1.9247,-1.9268,-1.9266,-1.9276,-1.9276,-1.9279,-1.9213,-1.9203,-1.9278,-1.9278,-1.9278,-1.9278,-1.9278,-1.9278,-1.8978,-1.9021,-1.9025,-1.9076,-1.9088,-1.9123,-1.9137,-1.9156,-1.9171,-1.9214,-1.924,-1.9248,-1.9265,-1.9296,-1.9323,-1.9326,-1.9339,-1.9351,-1.9353,-1.9291,-1.9283,-1.9275,-1.9266,-1.9354,-1.9354,-1.9417,-1.9418,-1.9418]}]]